Location: Unspecified
(48.8656°N, 0.0000°E)
Time: 17:02:25
(UTC+00:00)

Altair - Pass Details

Date: 24 June 2019
Orbit: 1501 x 1683 km, 47.2° (Epoch: 21 July)

Event Time Altitude Azimuth Distance (km) Brightness Sun altitude
Rises 21:42:56 0° 264° (W) 4,739 10.4 -11.3°
Reaches altitude 10° 21:45:57 10° 263° (W) 3,778 9.9 -11.6°
Maximum altitude 21:55:37 83° 178° (S) 1,640 7.6 -12.4°
Drops below altitude 10° 22:05:40 10° 93° (E) 3,915 9.3 -13.2°
Sets 22:08:51 0° 93° (E) 4,917 9.9 -13.4°
